User: anonymous   Login
Location: Holbach
(51.5399°N, 10.6036°E)
Time: 10:37:17
(UTC+00:00)
Language:

Cosmos 1833 Rocket - Orbit

View from above orbital plane
View from above orbital plane
View from above satellite
View from above satellite

Ground track
Ground track

The orbit data is extracted from the following two-line orbital elements,

1 17590U 87027B   20336.80663468 -.00000242  00000-0 -96911-4 0  9991
2 17590  71.0036   8.9723 0005495 203.0237 157.0641 14.16791621742869
Epoch (UTC): 01 December 2020 19:21:33
Eccentricity: 0.0005495
inclination: 71.0036°
perigee height: 832 km
apogee height: 840 km
right ascension of ascending node: 8.9723°
argument of perigee: 203.0237°
revolutions per day: 14.16791621
mean anomaly at epoch: 157.0641°
orbit number at epoch: 74286

The dashed part of the orbit path shows where the satellite is in the earth's shadow,  

DLR